,,Stat6,,Stat2,,Stat8,,Stat9,,Stat10,,Wind1,,Wind1,
time,status,PA1M_AVG,status,PR1M_SUM,status,RH1M_AVG,status,SR1M_AVG,status,TA1M_AVG,status,W1dAve1m,status,W1sAve1m,
2004-09-04, 00:00:00,VALID,920.025,VALID,0,VALID,100,VALID,-0.0169808,VALID,18.5243,VALID,359,VALID,2.3138,
2004-09-04, 00:01:00,VALID,920.023,VALID,0,VALID,100,VALID,0.0169808,VALID,18.5044,VALID,24,VALID,2.55202,
2004-09-04, 00:02:00,VALID,920.022,VALID,0,VALID,100,VALID,0,VALID,18.5116,VALID,21,VALID,1.95992,
2004-09-04, 00:03:00,VALID,920.01,VALID,0,VALID,100,VALID,0,VALID,18.4622,VALID,22,VALID,1.72639,
2004-09-04, 00:04:00,VALID,920.022,VALID,0,VALID,100,VALID,-0.0169808,VALID,18.4629,VALID,29,VALID,1.57965,
2004-09-04, 00:05:00,VALID,920.042,VALID,0,VALID,100,VALID,0,VALID,18.4823,VALID,19,VALID,2.34909,
2004-09-04, 00:06:00,VALID,920.036,VALID,0,VALID,100,VALID,0,VALID,18.4719,VALID,2,VALID,0.855378,
2004-09-04, 00:07:00,VALID,920.044,VALID,0,VALID,100,VALID,-0.0339617,VALID,18.4542,VALID,11,VALID,2.18192,
2004-09-04, 00:08:00,VALID,920.042,VALID,0,VALID,100,VALID,0,VALID,18.4373,VALID,24,VALID,1.87177,
2004-09-04, 00:09:00,VALID,920.05,VALID,0,VALID,100,VALID,-0.0339617,VALID,18.3919,VALID,14,VALID,1.69661,
2004-09-04, 00:10:00,VALID,920.066,VALID,0,VALID,100,VALID,-0.0169808,VALID,18.3825,VALID,41,VALID,0.996548,
2004-09-04, 00:11:00,VALID,920.071,VALID,0,VALID,100,VALID,-0.0339617,VALID,18.3889,VALID,19,VALID,1.64391,
2004-09-04, 00:12:00,VALID,920.054,VALID,0,VALID,100,VALID,-0.0169808,VALID,18.3693,VALID,342,VALID,1.58482,
2004-09-04, 00:13:00,VALID,920.049,VALID,0,VALID,100,VALID,0,VALID,18.3403,VALID,15,VALID,1.59375,
2004-09-04, 00:14:00,VALID,920.011,VALID,0,VALID,100,VALID,-0.0169808,VALID,18.3373,VALID,26,VALID,2.24727,
2004-09-04, 00:15:00,VALID,919.974,VALID,0,VALID,100,VALID,-0.0169808,VALID,18.3174,VALID,18,VALID,2.82955,
2004-09-04, 00:16:00,VALID,919.974,VALID,0,VALID,100,VALID,-0.0169808,VALID,18.3142,VALID,7,VALID,1.57422,
2004-09-04, 00:17:00,VALID,919.948,VALID,0,VALID,100,VALID,-0.0169808,VALID,18.2817,VALID,19,VALID,2.27083,
2004-09-04, 00:18:00,VALID,919.914,VALID,0,VALID,100,VALID,-0.0339617,VALID,18.2829,VALID,27,VALID,1.83612,
2004-09-04, 00:19:00,VALID,919.936,VALID,0,VALID,100,VALID,0,VALID,18.2762,VALID,17,VALID,2.36086,
2004-09-04, 00:20:00,VALID,919.909,VALID,0,VALID,100,VALID,0,VALID,18.2759,VALID,39,VALID,1.23846,
2004-09-04, 00:21:00,VALID,919.891,VALID,0,VALID,100,VALID,-0.0169808,VALID,18.2531,VALID,349,VALID,1.7526,
2004-09-04, 00:22:00,VALID,919.922,VALID,0,VALID,100,VALID,-0.0509425,VALID,18.2439,VALID,345,VALID,1.46518,
2004-09-04, 00:23:00,VALID,919.883,VALID,0,VALID,100,VALID,-0.0339617,VALID,18.2342,VALID,23,VALID,1.73438,
2004-09-04, 00:24:00,VALID,919.868,VALID,0,VALID,100,VALID,-0.0169808,VALID,18.2506,VALID,21,VALID,1.73026,
2004-09-04, 00:25:00,VALID,919.883,VALID,0,VALID,100,VALID,0,VALID,18.2635,VALID,6,VALID,1.43217,
2004-09-04, 00:26:00,VALID,919.889,VALID,0,VALID,100,VALID,0,VALID,18.2402,VALID,284,VALID,0.644727,
2004-09-04, 00:27:00,VALID,919.883,VALID,0,VALID,100,VALID,-0.0339617,VALID,18.2437,VALID,1,VALID,0.680208,
2004-09-04, 00:28:00,VALID,919.886,VALID,0,VALID,100,VALID,0,VALID,18.2732,VALID,358,VALID,0.680078,
2004-09-04, 00:29:00,VALID,919.875,VALID,0,VALID,100,VALID,0,VALID,18.2633,VALID,259,VALID,0.795686,
2004-09-04, 00:30:00,VALID,919.862,VALID,0,VALID,100,VALID,0,VALID,18.2407,VALID,28,VALID,1.54076,
2004-09-04, 00:31:00,VALID,919.856,VALID,0,VALID,100,VALID,0,VALID,18.2337,VALID,19,VALID,1.51504,
2004-09-04, 00:32:00,VALID,919.849,VALID,0,VALID,100,VALID,0,VALID,18.2469,VALID,19,VALID,1.56816,
2004-09-04, 00:33:00,VALID,919.826,VALID,0,VALID,100,VALID,0,VALID,18.2437,VALID,23,VALID,1.93917,
2004-09-04, 00:34:00,VALID,919.805,VALID,0,VALID,100,VALID,0,VALID,18.2111,VALID,14,VALID,2.28089,
2004-09-04, 00:35:00,VALID,919.8,VALID,0,VALID,100,VALID,0,VALID,18.2118,VALID,22,VALID,2.37671,
2004-09-04, 00:36:00,VALID,919.811,VALID,0,VALID,100,VALID,-0.0339617,VALID,18.2084,VALID,9,VALID,2.18694,
2004-09-04, 00:37:00,VALID,919.798,VALID,0,VALID,100,VALID,0,VALID,18.1726,VALID,359,VALID,1.22294,
2004-09-04, 00:38:00,VALID,919.788,VALID,0,VALID,100,VALID,0,VALID,18.1858,VALID,11,VALID,1.59996,
2004-09-04, 00:39:00,VALID,919.757,VALID,0,VALID,100,VALID,-0.0339617,VALID,18.1826,VALID,12,VALID,2.2134,
2004-09-04, 00:40:00,VALID,919.755,VALID,0,VALID,100,VALID,0,VALID,18.1567,VALID,1,VALID,2.00038,
2004-09-04, 00:41:00,VALID,919.734,VALID,0,VALID,100,VALID,0,VALID,18.1671,VALID,9,VALID,1.38192,
2004-09-04, 00:42:00,VALID,919.696,VALID,0,VALID,100,VALID,-0.0169808,VALID,18.1701,VALID,15,VALID,2.15425,
2004-09-04, 00:43:00,VALID,919.67,VALID,0,VALID,100,VALID,0,VALID,18.16,VALID,19,VALID,2.16886,
2004-09-04, 00:44:00,VALID,919.639,VALID,0,VALID,100,VALID,-0.0169808,VALID,18.1664,VALID,41,VALID,1.63172,
2004-09-04, 00:45:00,VALID,919.607,VALID,0,VALID,100,VALID,0,VALID,18.1535,VALID,30,VALID,2.14317,
2004-09-04, 00:46:00,VALID,919.599,VALID,0,VALID,100,VALID,0,VALID,18.1664,VALID,16,VALID,1.77134,
2004-09-04, 00:47:00,VALID,919.582,VALID,0,VALID,100,VALID,0,VALID,18.1763,VALID,22,VALID,2.00273,
2004-09-04, 00:48:00,VALID,919.594,VALID,0,VALID,100,VALID,0.0169808,VALID,18.1597,VALID,1,VALID,0.966797,
2004-09-04, 00:49:00,VALID,919.575,VALID,0,VALID,100,VALID,0,VALID,18.1505,VALID,323,VALID,1.61319,
2004-09-04, 00:50:00,VALID,919.532,VALID,0,VALID,100,VALID,0,VALID,18.121,VALID,357,VALID,1.47202,
2004-09-04, 00:51:00,VALID,919.509,VALID,0,VALID,100,VALID,-0.0169808,VALID,18.1088,VALID,17,VALID,0.353981,
2004-09-04, 00:52:00,VALID,919.481,VALID,0,VALID,100,VALID,-0.0169808,VALID,18.1215,VALID,356,VALID,1.00618,
2004-09-04, 00:53:00,VALID,919.454,VALID,0,VALID,100,VALID,0.0169808,VALID,18.1339,VALID,7,VALID,1.63616,
2004-09-04, 00:54:00,VALID,919.43,VALID,0,VALID,100,VALID,0,VALID,18.1311,VALID,14,VALID,1.94085,
2004-09-04, 00:55:00,VALID,919.4,VALID,0,VALID,100,VALID,0.0169808,VALID,18.124,VALID,22,VALID,1.73028,
2004-09-04, 00:56:00,VALID,919.377,VALID,0,VALID,100,VALID,0,VALID,18.1215,VALID,16,VALID,2.13385,
2004-09-04, 00:57:00,VALID,919.375,VALID,0,VALID,100,VALID,0,VALID,18.1281,VALID,16,VALID,1.83683,
2004-09-04, 00:58:00,VALID,919.36,VALID,0,VALID,100,VALID,-0.0169808,VALID,18.1215,VALID,11,VALID,1.20543,
2004-09-04, 00:59:00,VALID,919.353,VALID,0,VALID,100,VALID,0.0169808,VALID,18.1053,VALID,13,VALID,1.94459,
2004-09-04, 01:00:00,VALID,919.353,VALID,0,VALID,100,VALID,0.0169808,VALID,18.1145,VALID,20,VALID,1.43253,
2004-09-04, 01:01:00,VALID,919.333,VALID,0,VALID,100,VALID,-0.0169808,VALID,18.1219,VALID,8,VALID,1.20257,
2004-09-04, 01:02:00,VALID,919.317,VALID,0,VALID,100,VALID,0,VALID,18.1088,VALID,15,VALID,1.42205,
2004-09-04, 01:03:00,VALID,919.295,VALID,0,VALID,100,VALID,-0.0169808,VALID,18.0862,VALID,16,VALID,1.49094,
2004-09-04, 01:04:00,VALID,919.256,VALID,0,VALID,100,VALID,-0.0169808,VALID,18.0956,VALID,346,VALID,1.36537,
2004-09-04, 01:05:00,VALID,919.267,VALID,0,VALID,100,VALID,0,VALID,18.1021,VALID,15,VALID,1.21766,
2004-09-04, 01:06:00,VALID,919.258,VALID,0,VALID,100,VALID,-0.0169808,VALID,18.1281,VALID,13,VALID,1.44949,
2004-09-04, 01:07:00,VALID,919.26,VALID,0,VALID,100,VALID,-0.0169808,VALID,18.1215,VALID,18,VALID,1.33557,
2004-09-04, 01:08:00,VALID,919.261,VALID,0,VALID,100,VALID,-0.0169808,VALID,18.1279,VALID,19,VALID,1.32743,
2004-09-04, 01:09:00,VALID,919.253,VALID,0,VALID,100,VALID,0,VALID,18.1475,VALID,25,VALID,1.46129,
2004-09-04, 01:10:00,VALID,919.241,VALID,0,VALID,100,VALID,0,VALID,18.1436,VALID,15,VALID,1.44792,
2004-09-04, 01:11:00,VALID,919.239,VALID,0,VALID,100,VALID,-0.0169808,VALID,18.1636,VALID,18,VALID,1.35268,
2004-09-04, 01:12:00,VALID,919.225,VALID,0,VALID,100,VALID,0,VALID,18.147,VALID,22,VALID,2.0141,
2004-09-04, 01:13:00,VALID,919.21,VALID,0,VALID,100,VALID,-0.0169808,VALID,18.1215,VALID,3,VALID,2.40345,
2004-09-04, 01:14:00,VALID,919.218,VALID,0,VALID,100,VALID,-0.0169808,VALID,18.1217,VALID,18,VALID,2.27865,
2004-09-04, 01:15:00,VALID,919.22,VALID,0,VALID,100,VALID,0,VALID,18.1249,VALID,29,VALID,1.64724,
2004-09-04, 01:16:00,VALID,919.183,VALID,0,VALID,100,VALID,0.0169808,VALID,18.1021,VALID,341,VALID,1.37538,
2004-09-04, 01:17:00,VALID,919.18,VALID,0,VALID,100,VALID,0,VALID,18.1021,VALID,30,VALID,1.60271,
2004-09-04, 01:18:00,VALID,919.185,VALID,0,VALID,100,VALID,0,VALID,18.1316,VALID,315,VALID,0.853561,
2004-09-04, 01:19:00,VALID,919.145,VALID,0,VALID,100,VALID,0,VALID,18.1155,VALID,343,VALID,1.81517,
2004-09-04, 01:20:00,VALID,919.131,VALID,0,VALID,100,VALID,0,VALID,18.0926,VALID,349,VALID,1.19327,
2004-09-04, 01:21:00,VALID,919.118,VALID,0,VALID,100,VALID,0,VALID,18.0993,VALID,4,VALID,1.53652,
2004-09-04, 01:22:00,VALID,919.107,VALID,0,VALID,100,VALID,-0.0169808,VALID,18.115,VALID,17,VALID,1.68164,
2004-09-04, 01:23:00,VALID,919.07,VALID,0,VALID,100,VALID,-0.0169808,VALID,18.115,VALID,17,VALID,2.89244,
2004-09-04, 01:24:00,VALID,919.084,VALID,0,VALID,100,VALID,-0.0169808,VALID,18.1157,VALID,21,VALID,1.39082,
2004-09-04, 01:25:00,VALID,919.086,VALID,0,VALID,100,VALID,-0.0169808,VALID,18.1219,VALID,20,VALID,1.43331,
2004-09-04, 01:26:00,VALID,919.078,VALID,0,VALID,100,VALID,0,VALID,18.1281,VALID,20,VALID,2.03716,
2004-09-04, 01:27:00,VALID,919.072,VALID,0,VALID,100,VALID,-0.0169808,VALID,18.1249,VALID,18,VALID,0.980552,
2004-09-04, 01:28:00,VALID,919.063,VALID,0,VALID,100,VALID,0,VALID,18.1021,VALID,11,VALID,1.28906,
2004-09-04, 01:29:00,VALID,919.059,VALID,0,VALID,100,VALID,-0.0169808,VALID,18.1062,VALID,4,VALID,1.27344,
2004-09-04, 01:30:00,VALID,919.069,VALID,0,VALID,100,VALID,-0.0169808,VALID,18.1155,VALID,37,VALID,0.403343,
2004-09-04, 01:31:00,VALID,919.076,VALID,0,VALID,100,VALID,-0.0169808,VALID,18.1281,VALID,24,VALID,1.07227,
2004-09-04, 01:32:00,VALID,919.026,VALID,0,VALID,100,VALID,-0.0169808,VALID,18.1346,VALID,359,VALID,1.90898,
2004-09-04, 01:33:00,VALID,919.039,VALID,0,VALID,100,VALID,-0.0169808,VALID,18.1055,VALID,12,VALID,2.29581,
2004-09-04, 01:34:00,VALID,919.058,VALID,0,VALID,100,VALID,-0.0169808,VALID,18.1251,VALID,360,VALID,0.629764,
2004-09-04, 01:35:00,VALID,919.053,VALID,0,VALID,100,VALID,-0.0169808,VALID,18.1221,VALID,28,VALID,1.22547,
2004-09-04, 01:36:00,VALID,919.031,VALID,0,VALID,100,VALID,-0.0169808,VALID,18.1182,VALID,20,VALID,0.921549,
2004-09-04, 01:37:00,VALID,919.017,VALID,0,VALID,100,VALID,0,VALID,18.1316,VALID,17,VALID,0.952724,
2004-09-04, 01:38:00,VALID,919.036,VALID,0,VALID,100,VALID,-0.0169808,VALID,18.1475,VALID,23,VALID,0.915661,
2004-09-04, 01:39:00,VALID,919.005,VALID,0,VALID,100,VALID,0,VALID,18.1413,VALID,22,VALID,2.774,
2004-09-04, 01:40:00,VALID,919.007,VALID,0,VALID,100,VALID,-0.0339617,VALID,18.1381,VALID,22,VALID,1.95238,
2004-09-04, 01:41:00,VALID,919.01,VALID,0,VALID,100,VALID,-0.0169808,VALID,18.1411,VALID,16,VALID,1.6029,
2004-09-04, 01:42:00,VALID,919.007,VALID,0,VALID,100,VALID,-0.0169808,VALID,18.1118,VALID,19,VALID,1.15156,
2004-09-04, 01:43:00,VALID,919.006,VALID,0,VALID,100,VALID,-0.0339617,VALID,18.1247,VALID,24,VALID,2.07617,
2004-09-04, 01:44:00,VALID,918.992,VALID,0,VALID,100,VALID,-0.0509425,VALID,18.1212,VALID,24,VALID,1.7262,
2004-09-04, 01:45:00,VALID,918.964,VALID,0,VALID,100,VALID,0,VALID,18.148,VALID,21,VALID,1.13411,
2004-09-04, 01:46:00,VALID,918.942,VALID,0,VALID,100,VALID,0,VALID,18.1411,VALID,8,VALID,1.26886,
2004-09-04, 01:47:00,VALID,918.966,VALID,0,VALID,100,VALID,-0.0169808,VALID,18.151,VALID,4,VALID,0.222461,
2004-09-04, 01:48:00,VALID,918.949,VALID,0,VALID,100,VALID,-0.0169808,VALID,18.1452,VALID,70,VALID,0.754278,
2004-09-04, 01:49:00,VALID,918.938,VALID,0,VALID,100,VALID,0,VALID,18.1411,VALID,21,VALID,1.75436,
2004-09-04, 01:50:00,VALID,918.959,VALID,0,VALID,100,VALID,0,VALID,18.1376,VALID,20,VALID,0.740141,
2004-09-04, 01:51:00,VALID,918.98,VALID,0,VALID,100,VALID,-0.0339617,VALID,18.1507,VALID,1,VALID,0.222852,
2004-09-04, 01:52:00,VALID,918.97,VALID,0,VALID,100,VALID,-0.0169808,VALID,18.1374,VALID,35,VALID,0.771019,
2004-09-04, 01:53:00,VALID,918.967,VALID,0,VALID,100,VALID,-0.0169808,VALID,18.1115,VALID,47,VALID,0.978016,
2004-09-04, 01:54:00,VALID,918.968,VALID,0,VALID,100,VALID,-0.0509425,VALID,18.0926,VALID,37,VALID,0.733103,
2004-09-04, 01:55:00,VALID,918.947,VALID,0,VALID,100,VALID,0,VALID,18.1055,VALID,35,VALID,0.772485,
2004-09-04, 01:56:00,VALID,918.941,VALID,0,VALID,100,VALID,0,VALID,18.1058,VALID,10,VALID,1.02704,
2004-09-04, 01:57:00,VALID,918.895,VALID,0,VALID,100,VALID,-0.0169808,VALID,18.0924,VALID,16,VALID,1.09162,
2004-09-04, 01:58:00,VALID,918.891,VALID,0,VALID,100,VALID,-0.0339617,VALID,18.0507,VALID,324,VALID,1.67078,
2004-09-04, 01:59:00,VALID,918.899,VALID,0,VALID,100,VALID,-0.0339617,VALID,18.0276,VALID,56,VALID,0.72311,
2004-09-04, 02:00:00,VALID,918.857,VALID,0,VALID,100,VALID,-0.0169808,VALID,18.0343,VALID,52,VALID,1.52153,
2004-09-04, 02:01:00,VALID,918.847,VALID,0,VALID,100,VALID,-0.0169808,VALID,18.0534,VALID,18,VALID,1.5189,
2004-09-04, 02:02:00,VALID,918.819,VALID,0,VALID,100,VALID,0,VALID,18.0599,VALID,14,VALID,1.69707,
2004-09-04, 02:03:00,VALID,918.829,VALID,0,VALID,100,VALID,0,VALID,18.0797,VALID,339,VALID,0.722942,
2004-09-04, 02:04:00,VALID,918.827,VALID,0,VALID,100,VALID,0,VALID,18.0705,VALID,43,VALID,0.752486,
2004-09-04, 02:05:00,VALID,918.82,VALID,0,VALID,100,VALID,0,VALID,18.0636,VALID,51,VALID,0.65696,
2004-09-04, 02:06:00,VALID,918.831,VALID,0,VALID,100,VALID,-0.0169808,VALID,18.0606,VALID,308,VALID,0.918445,
2004-09-04, 02:07:00,VALID,918.832,VALID,0,VALID,100,VALID,-0.0169808,VALID,18.0537,VALID,3,VALID,0.904204,
2004-09-04, 02:08:00,VALID,918.825,VALID,0,VALID,100,VALID,-0.0169808,VALID,18.0829,VALID,21,VALID,0.888139,
2004-09-04, 02:09:00,VALID,918.804,VALID,0,VALID,100,VALID,-0.0169808,VALID,18.0929,VALID,5,VALID,1.20094,
2004-09-04, 02:10:00,VALID,918.815,VALID,0,VALID,100,VALID,-0.0169808,VALID,18.0959,VALID,37,VALID,0.986607,
2004-09-04, 02:11:00,VALID,918.794,VALID,0,VALID,100,VALID,-0.0169808,VALID,18.0998,VALID,99,VALID,1.11246,
2004-09-04, 02:12:00,VALID,918.783,VALID,0,VALID,100,VALID,-0.0169808,VALID,18.0636,VALID,24,VALID,1.18697,
2004-09-04, 02:13:00,VALID,918.799,VALID,0,VALID,100,VALID,-0.0169808,VALID,18.0735,VALID,22,VALID,0.535547,
2004-09-04, 02:14:00,VALID,918.802,VALID,0,VALID,100,VALID,-0.0169808,VALID,18.0864,VALID,106,VALID,0.478237,
2004-09-04, 02:15:00,VALID,918.803,VALID,0,VALID,100,VALID,0,VALID,18.109,VALID,357,VALID,0.236852,
2004-09-04, 02:16:00,VALID,918.805,VALID,0,VALID,100,VALID,-0.0339617,VALID,18.109,VALID,309,VALID,0.359947,
2004-09-04, 02:17:00,VALID,918.78,VALID,0,VALID,100,VALID,-0.0339617,VALID,18.0926,VALID,294,VALID,1.33346,
2004-09-04, 02:18:00,VALID,918.81,VALID,0,VALID,100,VALID,-0.0169808,VALID,18.0933,VALID,41,VALID,0.875372,
2004-09-04, 02:19:00,VALID,918.816,VALID,0,VALID,100,VALID,-0.0169808,VALID,18.0735,VALID,184,VALID,0.530007,
2004-09-04, 02:20:00,VALID,918.813,VALID,0,VALID,100,VALID,0,VALID,18.0668,VALID,43,VALID,0.478468,
2004-09-04, 02:21:00,VALID,918.796,VALID,0,VALID,100,VALID,-0.0169808,VALID,18.0797,VALID,39,VALID,1.11031,
2004-09-04, 02:22:00,VALID,918.778,VALID,0,VALID,100,VALID,-0.0169808,VALID,18.0929,VALID,17,VALID,0.337003,
2004-09-04, 02:23:00,VALID,918.755,VALID,0,VALID,100,VALID,-0.0169808,VALID,18.0926,VALID,311,VALID,0.848323,
2004-09-04, 02:24:00,VALID,918.727,VALID,0,VALID,100,VALID,-0.0339617,VALID,18.0995,VALID,41,VALID,0.762536,
2004-09-04, 02:25:00,VALID,918.711,VALID,0,VALID,100,VALID,-0.0339617,VALID,18.0922,VALID,27,VALID,0.973722,
2004-09-04, 02:26:00,VALID,918.706,VALID,0,VALID,100,VALID,-0.0169808,VALID,18.1125,VALID,11,VALID,0.664418,
2004-09-04, 02:27:00,VALID,918.709,VALID,0,VALID,100,VALID,0,VALID,18.1157,VALID,284,VALID,0.486607,
2004-09-04, 02:28:00,VALID,918.707,VALID,0,VALID,100,VALID,-0.0509425,VALID,18.1122,VALID,160,VALID,0.419207,
2004-09-04, 02:29:00,VALID,918.686,VALID,0,VALID,100,VALID,-0.0339617,VALID,18.1055,VALID,168,VALID,0.48819,
2004-09-04, 02:30:00,VALID,918.677,VALID,0,VALID,100,VALID,-0.0169808,VALID,18.0993,VALID,26,VALID,0.645389,
2004-09-04, 02:31:00,VALID,918.669,VALID,0,VALID,100,VALID,-0.0169808,VALID,18.112,VALID,318,VALID,0.686773,
2004-09-04, 02:32:00,VALID,918.63,VALID,0,VALID,100,VALID,0,VALID,18.1023,VALID,187,VALID,0.731105,
2004-09-04, 02:33:00,VALID,918.617,VALID,0,VALID,100,VALID,-0.0169808,VALID,18.0892,VALID,314,VALID,0.68821,
2004-09-04, 02:34:00,VALID,918.627,VALID,0,VALID,100,VALID,-0.0169808,VALID,18.1023,VALID,272,VALID,0.398611,
2004-09-04, 02:35:00,VALID,918.611,VALID,0,VALID,100,VALID,-0.0169808,VALID,18.106,VALID,17,VALID,1.15767,
2004-09-04, 02:36:00,VALID,918.586,VALID,0,VALID,100,VALID,-0.0339617,VALID,18.1021,VALID,32,VALID,0.950267,
2004-09-04, 02:37:00,VALID,918.601,VALID,0,VALID,100,VALID,-0.0169808,VALID,18.1085,VALID,299,VALID,0.473544,
2004-09-04, 02:38:00,VALID,918.599,VALID,0,VALID,100,VALID,0,VALID,18.1025,VALID,288,VALID,0.999455,
2004-09-04, 02:39:00,VALID,918.617,VALID,0,VALID,100,VALID,0,VALID,18.1025,VALID,13,VALID,0.780506,
2004-09-04, 02:40:00,VALID,918.623,VALID,0,VALID,100,VALID,-0.0169808,VALID,18.1023,VALID,26,VALID,0.867932,
2004-09-04, 02:41:00,VALID,918.633,VALID,0,VALID,100,VALID,-0.0169808,VALID,18.106,VALID,17,VALID,1.44178,
2004-09-04, 02:42:00,VALID,918.645,VALID,0,VALID,100,VALID,0,VALID,18.1081,VALID,21,VALID,1.51399,
2004-09-04, 02:43:00,VALID,918.661,VALID,0,VALID,100,VALID,-0.0169808,VALID,18.1219,VALID,4,VALID,1.22285,
2004-09-04, 02:44:00,VALID,918.67,VALID,0,VALID,100,VALID,-0.0339617,VALID,18.1088,VALID,21,VALID,1.16642,
2004-09-04, 02:45:00,VALID,918.674,VALID,0,VALID,100,VALID,-0.0339617,VALID,18.0896,VALID,14,VALID,1.81117,
2004-09-04, 02:46:00,VALID,918.685,VALID,0,VALID,100,VALID,-0.0339617,VALID,18.0896,VALID,16,VALID,1.99981,
2004-09-04, 02:47:00,VALID,918.687,VALID,0,VALID,100,VALID,0,VALID,18.0894,VALID,17,VALID,1.42827,
2004-09-04, 02:48:00,VALID,918.718,VALID,0,VALID,100,VALID,0,VALID,18.0862,VALID,37,VALID,1.36414,
2004-09-04, 02:49:00,VALID,918.729,VALID,0,VALID,100,VALID,-0.0169808,VALID,18.0763,VALID,23,VALID,0.795117,
2004-09-04, 02:50:00,VALID,918.712,VALID,0,VALID,100,VALID,0,VALID,18.0961,VALID,21,VALID,1.375,
2004-09-04, 02:51:00,VALID,918.699,VALID,0,VALID,100,VALID,0,VALID,18.0986,VALID,19,VALID,1.47798,
2004-09-04, 02:52:00,VALID,918.691,VALID,0,VALID,100,VALID,0.0169808,VALID,18.1053,VALID,23,VALID,1.65225,
2004-09-04, 02:53:00,VALID,918.705,VALID,0,VALID,100,VALID,-0.0169808,VALID,18.1085,VALID,24,VALID,0.605655,
2004-09-04, 02:54:00,VALID,918.704,VALID,0,VALID,100,VALID,0.0169808,VALID,18.1053,VALID,25,VALID,1.79948,
2004-09-04, 02:55:00,VALID,918.688,VALID,0,VALID,100,VALID,0,VALID,18.1021,VALID,21,VALID,1.65305,
2004-09-04, 02:56:00,VALID,918.714,VALID,0,VALID,100,VALID,0,VALID,18.0892,VALID,12,VALID,1.84223,
2004-09-04, 02:57:00,VALID,918.728,VALID,0,VALID,100,VALID,0.0169808,VALID,18.0793,VALID,17,VALID,1.14435,
2004-09-04, 02:58:00,VALID,918.733,VALID,0,VALID,100,VALID,0.0169808,VALID,18.0859,VALID,24,VALID,1.14542,
2004-09-04, 02:59:00,VALID,918.733,VALID,0,VALID,100,VALID,0,VALID,18.0924,VALID,17,VALID,1.06374,
2004-09-04, 03:00:00,VALID,918.695,VALID,0,VALID,100,VALID,0.0169808,VALID,18.0924,VALID,21,VALID,1.42169,
2004-09-04, 03:01:00,VALID,918.662,VALID,0,VALID,100,VALID,0,VALID,18.0795,VALID,13,VALID,1.97969,
2004-09-04, 03:02:00,VALID,918.652,VALID,0,VALID,100,VALID,0.0339617,VALID,18.0673,VALID,346,VALID,1.19036,
2004-09-04, 03:03:00,VALID,918.654,VALID,0,VALID,100,VALID,0.0339617,VALID,18.044,VALID,8,VALID,0.988758,
2004-09-04, 03:04:00,VALID,918.64,VALID,0,VALID,100,VALID,0.0169808,VALID,18.041,VALID,22,VALID,1.34175,
2004-09-04, 03:05:00,VALID,918.63,VALID,0,VALID,100,VALID,0,VALID,18.0405,VALID,20,VALID,1.36076,
2004-09-04, 03:06:00,VALID,918.616,VALID,0,VALID,100,VALID,0,VALID,18.044,VALID,22,VALID,0.867569,
2004-09-04, 03:07:00,VALID,918.6,VALID,0,VALID,100,VALID,0,VALID,18.067,VALID,20,VALID,1.15383,
2004-09-04, 03:08:00,VALID,918.606,VALID,0,VALID,100,VALID,0,VALID,18.0765,VALID,18,VALID,1.5169,
2004-09-04, 03:09:00,VALID,918.592,VALID,0,VALID,100,VALID,-0.0169808,VALID,18.0797,VALID,20,VALID,1.86346,
2004-09-04, 03:10:00,VALID,918.599,VALID,0,VALID,100,VALID,-0.0339617,VALID,18.0864,VALID,20,VALID,1.80611,
2004-09-04, 03:11:00,VALID,918.606,VALID,0,VALID,100,VALID,-0.0339617,VALID,18.0961,VALID,25,VALID,1.43921,
2004-09-04, 03:12:00,VALID,918.612,VALID,0,VALID,100,VALID,0,VALID,18.0959,VALID,18,VALID,0.962081,
2004-09-04, 03:13:00,VALID,918.597,VALID,0,VALID,100,VALID,0.0169808,VALID,18.1058,VALID,19,VALID,1.64863,
2004-09-04, 03:14:00,VALID,918.604,VALID,0,VALID,100,VALID,0.0339617,VALID,18.0924,VALID,6,VALID,1.07191,
2004-09-04, 03:15:00,VALID,918.591,VALID,0,VALID,100,VALID,0,VALID,18.1185,VALID,16,VALID,0.720703,
2004-09-04, 03:16:00,VALID,918.597,VALID,0,VALID,100,VALID,0,VALID,18.1187,VALID,40,VALID,0.479688,
2004-09-04, 03:17:00,VALID,918.598,VALID,0,VALID,100,VALID,0,VALID,18.1053,VALID,8,VALID,0.217262,
2004-09-04, 03:18:00,VALID,918.598,VALID,0,VALID,100,VALID,0,VALID,18.1085,VALID,11,VALID,0.526228,
2004-09-04, 03:19:00,VALID,918.578,VALID,0,VALID,100,VALID,0,VALID,18.112,VALID,5,VALID,0.866655,
2004-09-04, 03:20:00,VALID,918.565,VALID,0,VALID,100,VALID,0,VALID,18.1019,VALID,13,VALID,1.00293,
2004-09-04, 03:21:00,VALID,918.547,VALID,0,VALID,100,VALID,0.0169808,VALID,18.1381,VALID,31,VALID,1.28981,
2004-09-04, 03:22:00,VALID,918.532,VALID,0,VALID,100,VALID,0.0169808,VALID,18.1406,VALID,14,VALID,1.08727,
2004-09-04, 03:23:00,VALID,918.51,VALID,0,VALID,100,VALID,0.0339617,VALID,18.1574,VALID,37,VALID,0.690407,
2004-09-04, 03:24:00,VALID,918.475,VALID,0,VALID,100,VALID,0.0169808,VALID,18.1404,VALID,24,VALID,0.736737,
2004-09-04, 03:25:00,VALID,918.455,VALID,0,VALID,100,VALID,0.0169808,VALID,18.1505,VALID,15,VALID,0.696023,
2004-09-04, 03:26:00,VALID,918.427,VALID,0,VALID,100,VALID,0.0169808,VALID,18.16,VALID,13,VALID,0.681055,
2004-09-04, 03:27:00,VALID,918.419,VALID,0,VALID,100,VALID,0.0169808,VALID,18.16,VALID,19,VALID,0.689862,
2004-09-04, 03:28:00,VALID,918.411,VALID,0,VALID,100,VALID,0.0339617,VALID,18.1666,VALID,16,VALID,0.456936,
2004-09-04, 03:29:00,VALID,918.394,VALID,0,VALID,100,VALID,0,VALID,18.186,VALID,19,VALID,0.960156,
2004-09-04, 03:30:00,VALID,918.385,VALID,0,VALID,100,VALID,0.0339617,VALID,18.1759,VALID,21,VALID,1.05785,
2004-09-04, 03:31:00,VALID,918.376,VALID,0,VALID,100,VALID,0,VALID,18.1791,VALID,20,VALID,0.698289,
2004-09-04, 03:32:00,VALID,918.344,VALID,0,VALID,100,VALID,0.0169808,VALID,18.1892,VALID,20,VALID,0.110377,
2004-09-04, 03:33:00,VALID,918.339,VALID,0,VALID,100,VALID,0,VALID,18.186,VALID,20,VALID,0,
2004-09-04, 03:34:00,VALID,918.33,VALID,0,VALID,100,VALID,0.0169808,VALID,18.1798,VALID,20,VALID,0.0012429,
2004-09-04, 03:35:00,VALID,918.326,VALID,0,VALID,100,VALID,0.0169808,VALID,18.1724,VALID,20,VALID,0.109189,
2004-09-04, 03:36:00,VALID,918.312,VALID,0,VALID,100,VALID,0,VALID,18.183,VALID,21,VALID,0.33346,
2004-09-04, 03:37:00,VALID,918.298,VALID,0,VALID,100,VALID,0,VALID,18.1823,VALID,14,VALID,0.81468,
2004-09-04, 03:38:00,VALID,918.315,VALID,0,VALID,100,VALID,0,VALID,18.2054,VALID,349,VALID,0.129179,
2004-09-04, 03:39:00,VALID,918.323,VALID,0,VALID,100,VALID,0,VALID,18.1918,VALID,270,VALID,0.133003,
2004-09-04, 03:40:00,VALID,918.303,VALID,0,VALID,100,VALID,-0.0509425,VALID,18.1897,VALID,239,VALID,0.175071,
2004-09-04, 03:41:00,VALID,918.284,VALID,0,VALID,100,VALID,-0.0849042,VALID,18.2068,VALID,290,VALID,0.305273,
2004-09-04, 03:42:00,VALID,918.254,VALID,0,VALID,100,VALID,-0.0509425,VALID,18.1932,VALID,5,VALID,0.843559,
2004-09-04, 03:43:00,VALID,918.225,VALID,0,VALID,100,VALID,-0.0169808,VALID,18.2061,VALID,15,VALID,0.886979,
2004-09-04, 03:44:00,VALID,918.211,VALID,0,VALID,100,VALID,-0.0509425,VALID,18.1966,VALID,14,VALID,0.706473,